This is the latest recevied weather packets stored in our database for station/object W9GWP. If no packets are shown the sender has not sent any weather packets the latest 10 day(s).
| Time | Temp. | Humidity | Pressure | Rain* | Wind** | Luminosity | Snow |
|---|---|---|---|---|---|---|---|
| 1777973259 | 10° C | 54% | 1035.1 hPa | 0 mm | - | 0 W/m² | - |
| 1777972359 | 10° C | 55% | 1035.1 hPa | 0 mm | - | 0 W/m² | - |
| 1777971457 | 10.56° C | 55% | 1035 hPa | 0 mm | - | 0 W/m² | - |
| 1777970557 | 10.56° C | 54% | 1034.2 hPa | 0 mm | - | 0 W/m² | - |
| 1777969652 | 11.11° C | 54% | 1033.7 hPa | 0 mm | - | 0 W/m² | - |
| 1777968749 | 11.11° C | 53% | 1033.6 hPa | 0 mm | - | 0 W/m² | - |
| 1777967848 | 11.67° C | 55% | 1032.9 hPa | 0 mm | - | 0 W/m² | - |
| 1777966946 | 12.22° C | 53% | 1032.8 hPa | 0 mm | - | 0 W/m² | - |
| 1777966043 | 13.33° C | 52% | 1032.9 hPa | 0 mm | - | 0 W/m² | - |
| 1777965138 | 13.33° C | 50% | 1032.3 hPa | 0 mm | - | 0 W/m² | - |
| 1777964234 | 13.89° C | 48% | 1032.2 hPa | 0 mm | - | 0 W/m² | - |
| 1777963332 | 14.44° C | 47% | 1032 hPa | 0 mm | - | 0 W/m² | - |
| 1777962427 | 14.44° C | 46% | 1032.1 hPa | 0 mm | - | 0 W/m² | - |
| 1777961526 | 15° C | 43% | 1031.6 hPa | 0 mm | - | 0 W/m² | - |
| 1777960620 | 15.56° C | 42% | 1031.6 hPa | 0 mm | - | 0 W/m² | - |
| 1777959718 | 15.56° C | 43% | 1031.5 hPa | 0 mm | - | 0 W/m² | - |
| 1777958815 | 15.56° C | 42% | 1031.2 hPa | 0 mm | - | 0 W/m² | - |
| 1777957913 | 15.56° C | 42% | 1031 hPa | 0 mm | - | 0 W/m² | - |
| 1777957009 | 16.11° C | 44% | 1030.8 hPa | 0 mm | - | 0 W/m² | - |
| 1777956107 | 16.67° C | 42% | 1030.9 hPa | 0 mm | - | 0 W/m² | - |
| 1777955208 | 16.67° C | 45% | 1030.7 hPa | 0 mm | - | 0 W/m² | - |
| 1777954306 | 17.22° C | 43% | 1030.5 hPa | 0 mm | - | 0 W/m² | - |
| 1777953402 | 17.78° C | 43% | 1030.4 hPa | 0 mm | - | 0 W/m² | - |
| 1777952498 | 18.33° C | 44% | 1029.9 hPa | 0 mm | - | 0 W/m² | - |
| 1777951596 | 18.89° C | 42% | 1029.3 hPa | 0 mm | - | 0 W/m² | - |
* Rain latest hour (hover to see other rain measurements)
** Current wind speed in m/s (hover to see current wind gust speed)